Regional Weather Roundup
Issued by NWS

Home | Current Version | Previous Version | Graphics & Text | Print | Product List | Glossary On
Versions: 1 2 3 4 5 6 7 8 9 10 11 12 13 14 15 16 17 18 19 20 21 22 23 24 25 26 27 28 29 30 31 32 33 34 35 36 37 38 39 40 41 42 43 44 45 46 47 48 49 50
000
ASUS43 KMKX 241700
RWRWI

WISCONSIN REGIONAL WEATHER ROUNDUP
NATIONAL WEATHER SERVICE MILWAUKEE/SULLIVAN WI
1200 PM CDT WED AUG 24 2016

NOTE: "FAIR" INDICATES FEW OR NO CLOUDS BELOW 12,000 FEET WITH NO
SIGNIFICANT WEATHER AND/OR OBSTRUCTIONS TO VISIBILITY.

WIZ001-002-006>008-014>016-023>028-241800-
NORTHWEST WISCONSIN

CITY           SKY/WX    TMP DP  RH WIND       PRES   REMARKS
SUPERIOR ARPT  CLOUDY    74  67  78 W10       29.83S
ASHLAND        PTSUNNY   74  66  76 W13       29.83R
HAYWARD        CLOUDY    70  65  84 VRB5      29.87S
SIREN          PTSUNNY   72  66  81 W7        29.88S
CUMBERLAND     CLOUDY    70  63  78 W10       29.89S
RICE LAKE      CLOUDY    72  65  80 W10       29.90R
CHETEK         NOT AVBL
LADYSMITH      CLOUDY    73  67  83 W7        29.88S
EAU CLAIRE     NOT AVBL
MENOMONIE      CLOUDY    76  67  74 W9        29.88S
NEW RICHMOND   CLOUDY    73  67  80 W7        29.90S
OSCEOLA        CLOUDY    73  72  96 W3        29.92R
$$

WIZ003>005-009-010-017-018-241800-
NORTH CENTRAL WISCONSIN

CITY           SKY/WX    TMP DP  RH WIND       PRES   REMARKS
MANITOWISH WTR NOT AVBL
ARBOR VITAE    CLOUDY    69  68  96 W6        29.85R FOG
WOODRUFF       CLOUDY    69  68  96 W6        29.85R FOG
RHINELANDER    CLOUDY    70  68  93 SW10      29.87R
EAGLE RIVER    DRIZZLE   68  68 100 SW9       29.84S
LAND O LAKES   CLOUDY    70  67  91 W6        29.85R
PHILLIPS       CLOUDY    70  69  96 W3        29.86S
TOMAHAWK       CLOUDY    68  66  93 SW3       29.87R
MEDFORD        CLOUDY    69  69 100 SW8       29.88S
MERRILL        CLOUDY    69  68  99 W12       29.88R FOG
$$

WIZ029-030-035-036-043>047-241800-
CENTRAL WISCONSIN

CITY           SKY/WX    TMP DP  RH WIND       PRES   REMARKS
WAUSAU         CLOUDY    68  67  96 SW9       29.87R FOG
MOSINEE        CLOUDY    68  68 100 SW10      29.89S FOG
MARSHFIELD     CLOUDY    70  67  90 SW12      29.88S FOG
STEVENS POINT  CLOUDY    67  66  97 SW9       29.89S FOG
WAUPACA        CLOUDY    75  70  86 S12G17    29.89R
WAUTOMA        PTSUNNY   74  68  81 SW14      29.90R
WISC RAPIDS    CLOUDY    71  70  96 SW7       29.90S
CAMP DOUGLAS   NOT AVBL
$$

WIZ011>013-019>022-031-037>040-048>050-241800-
NORTHEAST WISCONSIN

CITY           SKY/WX    TMP DP  RH WIND       PRES   REMARKS
ANTIGO         CLOUDY    67  67  98 SW10      29.88S
SHAWANO        CLOUDY    73  68  84 W6        29.87R
OCONTO         NOT AVBL
STURGEON BAY   PTSUNNY   76  69  79 SW12      29.86S
GREEN BAY      CLOUDY    75  69  81 SW13      29.87R
MANITOWOC      NOT AVBL
APPLETON       PTSUNNY   75  66  73 SW14      29.88R
CLINTONVILLE   CLOUDY    75  68  78 SW18G24   29.87S
OSHKOSH        CLOUDY    77  67  71 SW16G24   29.89S
$$

WIZ032>034-041-042-053>061-241800-
SOUTHWEST WISCONSIN

CITY           SKY/WX    TMP DP  RH WIND       PRES   REMARKS
LA CROSSE      CLOUDY    76  32  20 S8        29.88S
SPARTA         CLOUDY    72  69  91 SW5       29.90S
VIROQUA        CLOUDY    74  71  91 S12       29.92S
BOSCOBEL       PTSUNNY   80  72  76 S10       29.90F HX  84
PRAIRIE DU CHI PTSUNNY   79  71  78 SW9       29.89F HX  81
PLATTEVILLE    CLOUDY    76  74  95 S10       29.94S
$$

WIZ056-057-062-063-064-067-068-241800-
SOUTH CENTRAL WISCONSIN

CITY           SKY/WX    TMP DP  RH WIND       PRES   REMARKS
REEDSBURG      NOT AVBL
BARABOO/DELLS  CLOUDY    73  67  81 S13       29.91S
LONE ROCK      NOT AVBL
MINERAL POINT  CLOUDY    77  73  88 S10       29.94S
MADISON        CLOUDY    76  69  79 S13       29.92R
MIDDLETON      CLOUDY    78  71  78 SW15      29.93S HX  80
WATERTOWN      CLOUDY    74  71  87 S15       29.92F
MONROE         CLOUDY    75  70  83 S15       29.95R
JANESVILLE     CLOUDY    73  73 100 S12       29.93S
$$

WIZ051-052-058>065-066-070>072-241800-
SOUTHEAST WISCONSIN

CITY           SKY/WX    TMP DP  RH WIND       PRES   REMARKS
MILWAUKEE      CLOUDY    78  68  71 SW15      29.93R HX  80
WAUKESHA       PTSUNNY   73  66  78 S10G18    29.94F
MILWAUKEE/TIMM SUNNY     77  63  61 SW13      29.93S
RACINE         CLOUDY    77  70  79 S5        29.95F
BURLINGTON     CLOUDY    74  70  85 S8        29.94S
KENOSHA        CLOUDY    76  71  85 SW7       29.95F
FOND DU LAC    CLOUDY    76  68  76 SW16G24   29.91S
SHEBOYGAN      PTSUNNY   77  67  71 SW16      29.90S
WEST BEND      CLOUDY    77  66  69 SW10G18   29.92S
JUNEAU         CLOUDY    73  69  85 S15G22    29.94S
$$

LSZ147-162-241800-
LAKE SUPERIOR

STATION/POSITION TIME  TEMP    WIND        PRES    WAVE
                       AIR SEA DIR/SP/G            HT/PER
                 (UTC) (F)     (DEG/KT/KT) (MB)    (FT/S)
W MID LAKE BUOY  1550   67 67  170/  8/  8 1008.4S   1
DEVILS ISLAND    1600   69     250/  8/ 10 1009.3R
PORT WING        1600   70     280/ 10/ 13 1010.2R
SAXON HARBOR     1600   74     290/  3/  6 1009.5R
$$

LMZ867-665-643>646-241800-
LAKE MICHIGAN

STATION/POSITION TIME  TEMP    WIND        PRES    WAVE
                       AIR SEA DIR/SP/G            HT/PER
                 (UTC) (F)     (DEG/KT/KT) (MB)    (FT/S)
CHAMBERS ISLAND  1600   71     190/  5/ 12 1010.8R
S GREEN BAY BUOY 1600   72 73  210/ 16/ 19 1010.5
N MID LAKE BUOY  1550   71 70  220/ 19/ 25 1009.9F   8/ 7
NORTHPORT PIER   1600   72     210/  4/ 10 1010.8R
SISTER BAY       1607   73     230/ 12/ 14   N/A
KEWAUNEE LAKESHO 1600   73     230/  8/ 13 1010.9R
SHEBOYGAN LAKESH 1600   68     200/ 14/ 15 1011.9R
PORT WASHINGTON  1600   68     170/  3/  6 1013.5
ATWATER BUOY     1600   58 46  190/ 10/ 12   N/A
MILWAUKEE LAKESH 1610   75     210/ 13/ 15   N/A
S MID LAKE BUOY  1550   73 74  170/ 19/ 23 1013.2F   4/ 6
KENOSHA   LAKESH 1600   64     180/ 11/ 13 1014.2R
$$

TC  - TEMPERATURE IN CELSIUS
VSB - VISIBILITY IN STATUTE MILES
WCI - WIND CHILL INDEX
HX  - HEAT INDEX





USA.gov is the U.S. government's official web portal to all federal, state and local government web resources and services.